Meteo Giornale » Osservazioni meteo Isole Minori degli Stati Uniti » Wake Island Wake Island Army Airfield
ore: 19:20 - Osservazioni Meteo Wake Island Wake Island Army Airfield
Lat. 19° 17' N Lon. 166° 39' E Alt. 4 metri s.l.m.
28 °C
Foschia
Temp. 24 Ore
27 °C
31 °C
Sud
37 Km/h
Dew point 25 °C
Umidità 83 %
Visibilità 2 Km
Il sole sorge alle ore 06:38
Il sole tramonta alle ore 19:08
| Data e Ora | Cielo e Fenomeni | T °C | DP °C | Um. % | Pres. hPa | Vis. km | Vento km/h | |
|---|---|---|---|---|---|---|---|---|
| Oggi h: 19:20 | Foschia | 28 | 25 | 83 | 1008 | 2 | S 37 | |
| Oggi h: 19:15 | Foschia | 28 | 25 | 83 | 1008 | 2 | S 37 | |
| Oggi h: 19:10 | Foschia | 28 | 25 | 83 | 1008 | 2 | S 38.8 | |
| Oggi h: 19:00 | Foschia | 28 | 26 | 88 | 1009 | 5 | S 40.7 | |
| Oggi h: 18:55 | Foschia | 28 | 26 | 88 | 1009 | 3 | S 37 | |
| Oggi h: 18:50 | Foschia | 28 | 26 | 88 | 1009 | 5 | S 37 | |
| Oggi h: 17:55 | Molto Nuvoloso | 27 | 25 | 88 | 1009 | 10 | S/SE 40.7 | |
| Oggi h: 17:49 | Molto Nuvoloso | 27 | 25 | 88 | 1009 | 10 | SE 44.4 | |
| Oggi h: 17:22 | Temporale nelle vicinanze Pioggia | 27 | 25 | 88 | 1009 | 10 | SE 37 | |
| Oggi h: 17:12 | Pioggia | 27 | 25 | 88 | 1009 | 11 | E/SE 37 | |
| Oggi h: 17:07 | Pioggia | 27 | 26 | 94 | 1009 | 13 | E/SE 38.8 | |
| Oggi h: 17:05 | Pioggia | 27 | 26 | 94 | 1009 | 14 | E/SE 40.7 | |
| Oggi h: 16:55 | Pioggia | 27 | 26 | 94 | 1009 | 13 | E/SE 37 | |
| Oggi h: 16:50 | Pioggia Foschia | 27 | 26 | 94 | 1009 | 10 | E/SE 38.8 | |
| Oggi h: 16:45 | Pioggia Foschia | 27 | 26 | 94 | 1009 | 6 | E/SE 40.7 | |
| Oggi h: 16:40 | Pioggia Foschia | 28 | 26 | 88 | 1009 | 2 | E/SE 44.4 | |
| Oggi h: 16:36 | Pioggia Foschia | 27 | 26 | 94 | 1009 | 5 | E/SE 37 | |
| Oggi h: 16:31 | Pioggia Foschia | 28 | 26 | 88 | 1009 | 10 | E/SE 35.2 | |
| Oggi h: 16:16 | Pioggia | 29 | 26 | 83 | 1009 | 10 | SE 16.7 | |
| Oggi h: 15:55 | Molto Nuvoloso | 29 | 27 | 89 | 1009 | 10 | SE 18.5 | |
| Oggi h: 15:20 | Molto Nuvoloso | 29 | 27 | 89 | 1008 | 10 | S/SE 16.7 | |
| Oggi h: 14:55 | Coperto | 30 | 27 | 84 | 1009 | 10 | N 5.5 | |
| Oggi h: 14:50 | Molto Nuvoloso | 30 | 27 | 84 | 1009 | 10 | N 0 | |
| Oggi h: 13:55 | Poco Nuvoloso | 30 | 27 | 84 | 1009 | 10 | O 13 | |
| Oggi h: 12:55 | Poco Nuvoloso | 31 | 27 | 79 | 1009 | 10 | O 9.3 | |
| Oggi h: 11:55 | Nuvoloso | 28 | 25 | 83 | 1010 | 10 | S 16.7 | |
| Oggi h: 11:28 | Poco Nuvoloso | 29 | 26 | 83 | 1010 | 10 | SO 9.3 | |
| Oggi h: 11:01 | Pioggia | 30 | 26 | 79 | 1010 | 10 | O 16.7 | |
| Oggi h: 11:00 | Molto Nuvoloso | 30 | 26 | 79 | 1010 | 10 | O/SO 20.3 | |
| Oggi h: 10:55 | Molto Nuvoloso | 31 | 27 | 79 | 1010 | 10 | O/SO 18.5 | |
| Oggi h: 09:55 | Nuvoloso | 31 | 27 | 79 | 1010 | 10 | SO 14.8 | |
| Oggi h: 09:40 | Nuvoloso | 30 | 27 | 84 | 1010 | 10 | SO 16.7 | |
| Oggi h: 09:10 | Molto Nuvoloso | 30 | 28 | 89 | 1010 | 10 | S/SO 18.5 | |
| Oggi h: 08:55 | Nuvoloso | 30 | 27 | 84 | 1010 | 10 | S/SO 20.3 | |
| Oggi h: 08:05 | Foschia | 29 | 27 | 89 | 1010 | 6 | S 18.5 | |
| Oggi h: 07:55 | Foschia | 29 | 27 | 89 | 1009 | 11 | S 18.5 | |
| Oggi h: 07:25 | Foschia | 29 | 27 | 89 | 1009 | 11 | S/SO 14.8 | |
| Oggi h: 07:20 | Foschia | 29 | 27 | 89 | 1009 | 3 | S/SO 14.8 | |
| Oggi h: 07:00 | Foschia | 29 | 26 | 83 | 1009 | 2 | SO 18.5 | |
| Oggi h: 06:55 | Foschia | 29 | 27 | 89 | 1009 | 2 | SO 20.3 | |
| Oggi h: 06:40 | Foschia | 29 | 27 | 89 | 1009 | 2 | S/SO 24 | |
| Oggi h: 06:30 | Foschia | 29 | 27 | 89 | 1009 | 5 | S/SO 24 | |
| Oggi h: 05:55 | Foschia | 29 | 27 | 89 | 1009 | 3 | S/SO 20.3 | |
| Oggi h: 04:55 | Foschia | 29 | 27 | 89 | 1008 | 3 | S 25.9 | |
| Oggi h: 04:15 | Foschia | 29 | 27 | 89 | 1009 | 3 | S 24 | |
| Oggi h: 04:05 | Foschia | 29 | 27 | 89 | 1009 | 11 | S 24 | |
| Oggi h: 03:55 | Temporale nelle vicinanze Foschia | 29 | 27 | 89 | 1009 | 2 | S 22.2 | |
| Oggi h: 03:50 | Temporale nelle vicinanze Foschia | 29 | 27 | 89 | 1009 | 5 | S 25.9 | |
| Oggi h: 02:55 | Poco Nuvoloso | 29 | 27 | 89 | 1008 | 11 | S 27.8 | |
| Oggi h: 02:48 | Nuvoloso | 29 | 27 | 89 | 1009 | 13 | S 25.9 | |
| Oggi h: 02:30 | Pioggia | 29 | 27 | 89 | 1009 | 11 | S 33.3 | |
| Oggi h: 02:25 | Pioggia Foschia | 29 | 27 | 89 | 1009 | 10 | S 29.6 | |
| Oggi h: 02:10 | Pioggia Foschia | 29 | 27 | 89 | 1009 | 10 | S 24 | |
| Oggi h: 01:55 | Pioggia Foschia | 29 | 27 | 89 | 1009 | 6 | S 27.8 | |
| Oggi h: 01:52 | Pioggia Foschia | 29 | 27 | 89 | 1009 | 6 | S 31.5 | |
| Oggi h: 01:25 | Foschia | 29 | 27 | 89 | 1009 | 10 | S 29.6 | |
| Oggi h: 01:01 | Pioggia Foschia | 29 | 27 | 89 | 1010 | 5 | S 31.5 | |
| Oggi h: 00:55 | Foschia | 29 | 27 | 89 | 1010 | 5 | S 31.5 | |
| Ieri h: 23:55 | Temporale nelle vicinanze Foschia | 29 | 27 | 89 | 1011 | 5 | S/SE 20.3 | |
| Ieri h: 22:55 | Foschia | 29 | 27 | 89 | 1011 | 5 | S/SE 16.7 | |
| Ieri h: 21:55 | Foschia | 29 | 27 | 89 | 1011 | 6 | S/SE 20.3 | |
| Ieri h: 20:55 | Foschia | 29 | 27 | 89 | 1010 | 6 | S 25.9 | |
| Ieri h: 20:45 | Foschia | 29 | 27 | 89 | 1010 | 6 | S 24 | |



